Flag for Israel Weather past 2 weeks in Petah Tikva, Israel

Now
73 °F

Passing clouds.


Feels Like: 73 °F
Forecast: 73 / 84 °F
Wind: 5 mph from South

Location: Ben Gurion International Airport

Current Time: Jul 7, 2015 at 3:58:00 AM

Latest Report: Jul 7, 2015 at 3:20 AM


Visibility: N/A

Pressure: 29.86 "Hg

Humidity: 83%

Dew point: 68 °F

Location of Petah TikvaLocation

Historic Weather in Petah Tikva — Graph

°F

Petah Tikva temperature yesterday

Maximum temperature yesterday: 86 °F (at 10:20 AM)
Minimum temperature yesterday: 72 °F (at 5:50 AM)
Average temperature yesterday: 80 °F

Past Weeks' High & Low Weather Summary

 TemperatureHumidityPressure
High91 °F (Jun 27, 1:20 PM)83% (Jun 27, 12:50 AM)29.98 "Hg (Jun 27, 12:50 AM)
Low68 °F (Jun 22, 6:20 AM)21% (Jun 27, 6:50 PM)29.59 "Hg (Jun 27, 9:20 PM)
Average78 °F63%29.86 "Hg
* Reported Jun 22 2:20 AM — Jul 7 2:20 AM, Petah Tikva, Weather by CustomWeather, © 2015

Note: Actual official high and low records may vary slightly from our data, if they occured in-between our weather recording intervals... More about our weather records

Advertising

Petah Tikva weather history for previous 24 hours

 ConditionsComfort  
Time TempWeatherWind HumidityBarometerVisibility
2:20 AM
Tue, Jul 7
75 °FPassing clouds.2 mph78%29.86 "HgN/A
1:50 AM73 °FPassing clouds.3 mph83%29.86 "HgN/A
1:20 AM75 °FPassing clouds.3 mph78%29.86 "HgN/A
12:50 AM75 °FPassing clouds.3 mph78%29.86 "HgN/A
12:20 AM75 °FPassing clouds.3 mph78%29.86 "HgN/A
11:50 PM
Mon, Jul 6
75 °FPassing clouds.3 mph78%29.86 "HgN/A
11:20 PM77 °FPassing clouds.5 mph74%29.86 "HgN/A
10:50 PM77 °FPassing clouds.3 mph74%29.86 "HgN/A
10:20 PM77 °FPassing clouds.5 mph74%29.86 "HgN/A
9:50 PM77 °FPassing clouds.5 mph74%29.86 "HgN/A
9:20 PM79 °FPassing clouds.5 mph70%29.86 "HgN/A
8:50 PM79 °FPassing clouds.8 mph74%29.86 "HgN/A
8:20 PM79 °FPassing clouds.8 mph70%29.86 "HgN/A
7:50 PM79 °FPassing clouds.8 mph70%29.86 "HgN/A
7:20 PM81 °FSunny.9 mph66%29.86 "Hg10 mi
6:50 PM82 °FSunny.10 mph62%29.83 "Hg10 mi
6:20 PM84 °FSunny.12 mph55%29.83 "Hg10 mi
5:50 PM84 °FSunny.13 mph58%29.83 "Hg10 mi
5:20 PM84 °FPassing clouds.12 mph58%29.83 "HgN/A
4:50 PM84 °FPassing clouds.12 mph62%29.83 "HgN/A
4:20 PM84 °FPassing clouds.12 mph62%29.83 "HgN/A
3:50 PM84 °FPassing clouds.13 mph62%29.83 "HgN/A
3:20 PM84 °FPassing clouds.15 mph62%29.86 "HgN/A
2:50 PM86 °FSunny.14 mph59%29.86 "Hg10 mi
2:20 PM86 °FSunny.14 mph59%29.86 "Hg10 mi
1:50 PM86 °FPassing clouds.13 mph55%29.86 "HgN/A
1:20 PM86 °FPassing clouds.13 mph59%29.86 "HgN/A
12:50 PM86 °FSunny.12 mph59%29.86 "Hg10 mi
12:20 PM86 °FSunny.14 mph59%29.86 "Hg10 mi
11:50 AM86 °FSunny.13 mph59%29.86 "Hg10 mi
11:20 AM86 °FSunny.8 mph59%29.86 "Hg10 mi
10:50 AM86 °FSunny.7 mph59%29.86 "Hg10 mi
10:20 AM86 °FSunny.6 mph55%29.86 "Hg10 mi
9:50 AM84 °FSunny.5 mph55%29.86 "Hg10 mi
9:20 AM82 °FSunny.5 mph58%29.89 "Hg10 mi
8:50 AM81 °FSunny.3 mph70%29.89 "Hg10 mi
8:20 AM79 °FSunny.2 mph74%29.89 "Hg10 mi
7:50 AM77 °FSunny.2 mph74%29.89 "Hg10 mi
7:20 AM75 °FSunny.6 mph74%29.89 "Hg10 mi
6:50 AM77 °FSunny.8 mph69%29.89 "Hg10 mi
6:20 AM72 °FPassing clouds.5 mph78%29.89 "HgN/A
5:50 AM72 °FPassing clouds.5 mph78%29.89 "HgN/A
5:20 AM73 °FPassing clouds.3 mph78%29.86 "HgN/A
4:50 AM73 °FPassing clouds.5 mph74%29.86 "HgN/A
4:20 AM73 °FPassing clouds.5 mph78%29.86 "HgN/A
3:50 AM73 °FClear.3 mph78%29.86 "Hg10 mi
3:20 AM73 °FClear.3 mph83%29.86 "Hg10 mi
Weather by CustomWeather, © 2015

See weather overviewHow to use our weather pages